Flag for Brazil Weather past 2 weeks in Porto Velho, Rondônia, Brazil

Now
90 °F

Sunny.


Feels Like: 93 °F
Forecast: 71 / 96 °F
Wind: 7 mph from East

Location: Porto Velho Aeroporto

Current Time: Aug 4, 2015 at 11:00:04 AM

Latest Report: Aug 4, 2015 at 10:00 AM


Visibility: 10 mi

Pressure: 29.95 "Hg

Humidity: 49%

Dew point: 68 °F

Location of Porto VelhoLocation

Historic Weather in Porto Velho — Graph

°F

Porto Velho temperature yesterday

Maximum temperature yesterday: 93 °F (at 1:00 PM)
Minimum temperature yesterday: 66 °F (at 6:00 AM)
Average temperature yesterday: 80 °F

Past Weeks' High & Low Weather Summary

 TemperatureHumidityPressure
High95 °F (Jul 29, 2:00 PM)94% (Jul 22, 7:00 AM)30.04 "Hg (Jul 22, 7:00 AM)
Low66 °F (Jul 26, 6:00 AM)23% (Jul 25, 3:00 PM)29.56 "Hg (Aug 4, 4:00 AM)
Average80 °F65%29.89 "Hg
* Reported Jul 20 10:00 AM — Aug 4 10:00 AM, Porto Velho, Weather by CustomWeather, © 2015

Note: Actual official high and low records may vary slightly from our data, if they occured in-between our weather recording intervals... More about our weather records

Advertising

Porto Velho weather history for previous 24 hours

 ConditionsComfort  
Time TempWeatherWind HumidityBarometerVisibility
10:00 AM
Tue, Aug 4
90 °FSunny.7 mph49%29.95 "Hg10 mi
9:00 AM84 °FSunny.3 mph58%29.95 "Hg10 mi
8:00 AM79 °FSunny.1 mph70%29.92 "Hg10 mi
7:00 AM72 °FSunny.1 mph83%29.92 "Hg10 mi
6:00 AM70 °FClear.No wind83%29.89 "Hg10 mi
5:00 AM72 °FClear.2 mph83%29.89 "Hg10 mi
4:00 AM72 °FClear.No wind78%29.56 "Hg10 mi
3:00 AM73 °FClear.No wind78%29.86 "Hg10 mi
2:00 AM72 °FClear.No wind83%29.86 "Hg10 mi
1:00 AM72 °FClear.No wind78%29.89 "Hg10 mi
12:00 AM72 °FClear.No wind78%29.89 "Hg10 mi
11:00 PM
Mon, Aug 3
73 °FClear.No wind74%29.89 "Hg10 mi
10:00 PM75 °FClear.No wind69%29.89 "Hg10 mi
9:00 PM79 °FClear.No wind61%29.89 "Hg10 mi
8:00 PM81 °FClear.1 mph58%29.86 "Hg10 mi
7:00 PM82 °FClear.No wind55%29.83 "Hg10 mi
6:00 PM86 °FSunny.2 mph46%29.80 "Hg10 mi
5:00 PM91 °FSunny.6 mph32%29.80 "Hg10 mi
4:00 PM93 °FSunny.7 mph28%29.80 "Hg10 mi
3:00 PM93 °FPassing clouds.9 mph26%29.83 "HgN/A
2:00 PM93 °FPassing clouds.12 mph26%29.86 "HgN/A
1:00 PM93 °FPassing clouds.8 mph32%29.89 "HgN/A
12:00 PM91 °FPassing clouds.8 mph38%29.92 "HgN/A
11:00 AM90 °FSunny.3 mph43%29.92 "Hg10 mi
Weather by CustomWeather, © 2015

See weather overviewHow to use our weather pages